Terminal Aerodrome Forecast
Issued by NWS

Home | Current Version | Previous Version | Text Only | Print | Product List | Glossary On
Versions: 1 2 3 4 5 6 7 8 9 10 11 12 13 14 15 16 17 18 19 20 21 22
000
FTPQ31 PGUM 210500
TAFPQ
TAF

PTRO 210537Z 2106/2206 24008KT P6SM VCSH SCT017 BKN120=

USA.gov is the U.S. government's official web portal to all federal, state and local government web resources and services.